TimeEDT,TemperatureF,Dew PointF,Humidity,Sea Level PressureIn,VisibilityMPH,Wind Direction,Wind SpeedMPH,Gust SpeedMPH,PrecipitationIn,Events,Conditions,WindDirDegrees,DateUTC
12:54 AM,70.0,64.9,84,29.89,10.0,SE,11.5,-,N/A,,Mostly Cloudy,140,2013-07-28 04:54:00
1:01 AM,71.6,64.4,78,29.89,10.0,SSE,6.9,-,N/A,,Mostly Cloudy,160,2013-07-28 05:01:00
1:15 AM,71.6,64.4,78,29.89,10.0,Variable,5.8,16.1,N/A,,Overcast,0,2013-07-28 05:15:00
1:33 AM,69.8,64.4,83,29.88,9.0,SE,8.1,-,N/A,,Overcast,130,2013-07-28 05:33:00
1:54 AM,70.0,64.9,84,29.88,9.0,SE,5.8,-,0.00,Rain,Light Rain,130,2013-07-28 05:54:00
2:38 AM,69.8,64.4,83,29.88,10.0,SSE,3.5,-,0.00,,Mostly Cloudy,160,2013-07-28 06:38:00
2:50 AM,69.8,64.4,83,29.87,9.0,SSE,9.2,-,0.00,,Mostly Cloudy,150,2013-07-28 06:50:00
2:54 AM,70.0,64.9,84,29.87,9.0,SSE,5.8,-,0.00,,Mostly Cloudy,160,2013-07-28 06:54:00
3:11 AM,69.8,64.4,83,29.88,9.0,South,8.1,-,N/A,,Mostly Cloudy,180,2013-07-28 07:11:00
3:54 AM,70.0,64.9,84,29.87,10.0,SSE,6.9,-,N/A,,Partly Cloudy,160,2013-07-28 07:54:00
4:54 AM,70.0,64.9,84,29.86,8.0,NE,5.8,-,N/A,,Scattered Clouds,50,2013-07-28 08:54:00
5:01 AM,69.8,64.4,83,29.87,8.0,NE,9.2,-,N/A,,Mostly Cloudy,50,2013-07-28 09:01:00
5:54 AM,70.0,66.0,87,29.88,9.0,SSE,6.9,-,N/A,,Mostly Cloudy,150,2013-07-28 09:54:00
6:54 AM,71.1,66.0,84,29.89,9.0,South,9.2,-,0.00,,Overcast,170,2013-07-28 10:54:00
7:54 AM,71.1,66.0,84,29.89,9.0,South,11.5,-,N/A,,Overcast,170,2013-07-28 11:54:00
8:54 AM,72.0,66.0,81,29.88,10.0,SSW,6.9,-,N/A,,Overcast,210,2013-07-28 12:54:00
9:35 AM,68.0,62.6,83,29.91,2.5,SW,38.0,51.8,0.00,Rain,Light Rain,230,2013-07-28 13:35:00
9:38 AM,62.6,59.0,88,29.92,0.8,WSW,28.8,51.8,0.00,Rain,Heavy Rain,240,2013-07-28 13:38:00
9:42 AM,60.8,57.2,88,29.93,1.5,WSW,21.9,51.8,0.18,Rain,Heavy Rain,240,2013-07-28 13:42:00
9:44 AM,60.8,57.2,88,29.93,1.5,WSW,16.1,41.4,0.20,Rain,Heavy Rain,250,2013-07-28 13:44:00
9:46 AM,60.8,57.2,88,29.93,1.5,WSW,15.0,38.0,0.22,Rain,Heavy Rain,250,2013-07-28 13:46:00
9:54 AM,61.0,59.0,93,29.93,1.0,West,13.8,23.0,0.28,Rain,Heavy Rain,260,2013-07-28 13:54:00
10:04 AM,60.8,59.0,94,29.93,1.0,West,5.8,-,0.20,Rain,Heavy Rain,280,2013-07-28 14:04:00
10:12 AM,60.8,60.8,100,29.93,1.0,Variable,3.5,-,0.26,Rain,Heavy Rain,0,2013-07-28 14:12:00
10:27 AM,62.6,60.8,94,29.91,5.0,Calm,Calm,-,0.32,Rain,Light Rain,0,2013-07-28 14:27:00
10:54 AM,64.9,61.0,87,29.90,10.0,Calm,Calm,-,0.32,,Overcast,0,2013-07-28 14:54:00
11:54 AM,69.1,61.0,75,29.91,10.0,Calm,Calm,-,N/A,,Mostly Cloudy,0,2013-07-28 15:54:00
12:54 PM,70.0,62.1,76,29.92,10.0,SE,8.1,-,N/A,,Mostly Cloudy,130,2013-07-28 16:54:00
1:54 PM,73.9,64.0,71,29.92,10.0,SE,5.8,-,N/A,,Scattered Clouds,140,2013-07-28 17:54:00
2:54 PM,78.1,62.1,58,29.89,10.0,East,4.6,-,N/A,,Partly Cloudy,90,2013-07-28 18:54:00
3:54 PM,77.0,63.0,62,29.87,10.0,East,5.8,-,N/A,,Scattered Clouds,100,2013-07-28 19:54:00
4:54 PM,78.1,61.0,56,29.86,10.0,Calm,Calm,-,N/A,,Scattered Clouds,0,2013-07-28 20:54:00
5:54 PM,80.1,63.0,56,29.87,10.0,SE,4.6,-,N/A,,Mostly Cloudy,140,2013-07-28 21:54:00
6:54 PM,80.1,59.0,48,29.88,10.0,South,3.5,-,N/A,,Clear,190,2013-07-28 22:54:00
7:54 PM,73.9,57.9,57,29.89,10.0,SW,4.6,-,N/A,,Clear,220,2013-07-28 23:54:00
8:54 PM,70.0,59.0,68,29.92,10.0,NW,5.8,-,N/A,,Clear,320,2013-07-29 00:54:00
9:54 PM,66.0,59.0,78,29.95,10.0,SSE,4.6,-,N/A,,Clear,150,2013-07-29 01:54:00
10:54 PM,64.0,59.0,84,29.96,10.0,NW,4.6,-,N/A,,Clear,320,2013-07-29 02:54:00
11:54 PM,63.0,59.0,87,29.97,10.0,Calm,Calm,-,N/A,,Clear,0,2013-07-29 03:54:00